Weather History for KOZA - March, 2013

Change the Weather History Date:

Thursday, March 21, 2013

  Actual Average Record
Temperature  
Mean Temperature 66 °F -  
Max Temperature 78 °F 72 °F 82 °F (2014)
Min Temperature 53 °F 42 °F 38 °F (2012)
Growing Degree Days 16 (Base 50)    
Moisture  
Dew Point 49 °F    
Average Humidity 56    
Maximum Humidity 72    
Minimum Humidity 32    
Precipitation  
Precipitation 0.00 in - - ()
Sea Level Pressure  
Sea Level Pressure 29.78 in    
Wind  
Wind Speed 15 mph (SSW)    
Max Wind Speed 25 mph    
Max Gust Speed 33 mph    
Visibility 10 miles    
Events      
Averages and records for this station are not official NWS values.
T = Trace of Precipitation, MM = Missing Value Source: NWS Daily Summary

Daily Weather History Graph

Daily Weather History Graph

Search for Another Location

Airport or City:

Trip Planner

Search our weather history database for the weather conditions in past years. The results will help you decide how hot, cold, wet, or windy it might be!

Date:

Astronomy

Mar. 21, 2013 Rise Set
Actual Time 7:47 AM CDT 7:57 PM CDT
Civil Twilight 7:22 AM CDT 8:21 PM CDT
Nautical Twilight 6:54 AM CDT 8:49 PM CDT
Astronomical Twilight 6:26 AM CDT 9:17 PM CDT
Moon 2:47 PM CDT (3/21) 3:50 AM CDT (3/21)
Length of Visible Light 12h 58m
Length of Day
12h 10m
Waxing Gibbous, 69% of the Moon is Illuminated
Mar 21
Waxing Gibbous
Mar 27
Full
Apr 2
Last Quarter
Apr 10
New
Apr 18
First Quarter

Hourly Weather History & Observations

Time (CDT) Temp. Dew Point Humidity Pressure Visibility Wind Dir Wind Speed Gust Speed Precip Events Conditions
12:15 AM 62.6 °F 46.4 °F 55% 30.00 in 10.0 mi South 12.7 mph 20.7 mph N/A   Clear
12:35 AM 62.6 °F 46.4 °F 55% 30.00 in 10.0 mi South 12.7 mph 19.6 mph N/A   Scattered Clouds
1:15 AM 62.6 °F 46.4 °F 55% 29.98 in 10.0 mi South 16.1 mph 20.7 mph N/A   Scattered Clouds
1:35 AM 60.8 °F 46.4 °F 59% 29.98 in 10.0 mi South 13.8 mph - N/A   Scattered Clouds
1:55 AM 60.8 °F 46.4 °F 59% 29.96 in 10.0 mi South 15.0 mph 21.9 mph N/A   Scattered Clouds
2:15 AM 60.8 °F 46.4 °F 59% 29.95 in 10.0 mi South 17.3 mph 24.2 mph N/A   Clear
2:35 AM 60.8 °F 46.4 °F 59% 29.94 in 10.0 mi South 13.8 mph 27.6 mph N/A   Clear
2:55 AM 59.0 °F 46.4 °F 63% 29.94 in 10.0 mi South 11.5 mph 21.9 mph N/A   Clear
3:15 AM 59.0 °F 46.4 °F 63% 29.93 in 10.0 mi South 13.8 mph 19.6 mph N/A   Clear
3:35 AM 59.0 °F 46.4 °F 63% 29.93 in 10.0 mi South 9.2 mph 18.4 mph N/A   Clear
3:55 AM 57.2 °F 46.4 °F 67% 29.91 in 10.0 mi South 12.7 mph - N/A   Clear
4:15 AM 57.2 °F 46.4 °F 67% 29.90 in 10.0 mi South 11.5 mph - N/A   Clear
4:35 AM 55.4 °F 46.4 °F 72% 29.88 in 10.0 mi South 12.7 mph - N/A   Clear
4:55 AM 55.4 °F 46.4 °F 72% 29.87 in 10.0 mi South 13.8 mph - N/A   Clear
5:15 AM 55.4 °F 46.4 °F 72% 29.86 in 10.0 mi South 11.5 mph - N/A   Clear
5:35 AM 55.4 °F 46.4 °F 72% 29.85 in 10.0 mi South 11.5 mph 19.6 mph N/A   Clear
5:55 AM 55.4 °F 46.4 °F 72% 29.84 in 10.0 mi South 16.1 mph 19.6 mph N/A   Clear
6:15 AM 55.4 °F 46.4 °F 72% 29.84 in 10.0 mi South 16.1 mph 20.7 mph N/A   Clear
6:35 AM 53.6 °F 44.6 °F 72% 29.84 in 10.0 mi South 12.7 mph 17.3 mph N/A   Clear
6:55 AM 53.6 °F 44.6 °F 72% 29.84 in 10.0 mi South 12.7 mph 18.4 mph N/A   Clear
7:15 AM 53.6 °F 44.6 °F 72% 29.84 in 10.0 mi South 11.5 mph - N/A   Clear
7:35 AM 53.6 °F 44.6 °F 72% 29.84 in 10.0 mi South 12.7 mph - N/A   Clear
7:55 AM 53.6 °F 44.6 °F 72% 29.84 in 10.0 mi South 10.4 mph - N/A   Clear
8:15 AM 53.6 °F 44.6 °F 72% 29.84 in 10.0 mi South 11.5 mph - N/A   Clear
8:35 AM 55.4 °F 46.4 °F 72% 29.84 in 10.0 mi South 16.1 mph 19.6 mph N/A   Clear
8:55 AM 57.2 °F 46.4 °F 67% 29.83 in 10.0 mi South 18.4 mph 25.3 mph N/A   Clear
9:15 AM 59.0 °F 50.0 °F 72% 29.84 in 10.0 mi South 17.3 mph 29.9 mph N/A   Clear
9:35 AM 59.0 °F 50.0 °F 72% 29.83 in 10.0 mi South 21.9 mph 31.1 mph N/A   Clear
9:55 AM 60.8 °F 50.0 °F 68% 29.84 in 10.0 mi South 23.0 mph 33.4 mph N/A   Clear
10:15 AM 60.8 °F 51.8 °F 72% 29.84 in 10.0 mi South 25.3 mph 31.1 mph N/A   Clear
10:35 AM 62.6 °F 51.8 °F 68% 29.82 in 10.0 mi SSW 24.2 mph 29.9 mph N/A   Clear
10:55 AM 64.4 °F 51.8 °F 64% 29.82 in 10.0 mi South 21.9 mph 29.9 mph N/A   Clear
11:15 AM 64.4 °F 51.8 °F 64% 29.81 in 10.0 mi South 24.2 mph 32.2 mph N/A   Clear
11:35 AM 64.4 °F 51.8 °F 64% 29.81 in 10.0 mi SSW 20.7 mph 27.6 mph N/A   Clear
11:55 AM 66.2 °F 51.8 °F 60% 29.80 in 10.0 mi South 20.7 mph 31.1 mph N/A   Clear
12:15 PM 68.0 °F 51.8 °F 56% 29.79 in 10.0 mi South 23.0 mph 29.9 mph N/A   Clear
12:35 PM 68.0 °F 51.8 °F 56% 29.78 in 10.0 mi South 21.9 mph 27.6 mph N/A   Clear
12:55 PM 69.8 °F 51.8 °F 53% 29.77 in 10.0 mi SSW 25.3 mph 29.9 mph N/A   Clear
1:15 PM 71.6 °F 51.8 °F 50% 29.76 in 10.0 mi SSW 19.6 mph 25.3 mph N/A   Clear
1:35 PM 73.4 °F 51.8 °F 47% 29.74 in 10.0 mi South 18.4 mph 28.8 mph N/A   Clear
1:55 PM 75.2 °F 51.8 °F 44% 29.73 in 10.0 mi South 17.3 mph 28.8 mph N/A   Clear
2:15 PM 75.2 °F 50.0 °F 41% 29.71 in 10.0 mi SSW 17.3 mph 28.8 mph N/A   Clear
2:35 PM 77.0 °F 50.0 °F 39% 29.70 in 10.0 mi South 21.9 mph 27.6 mph N/A   Clear
2:55 PM 77.0 °F 48.2 °F 36% 29.69 in 10.0 mi SSW 16.1 mph 26.5 mph N/A   Clear
3:15 PM 77.0 °F 48.2 °F 36% 29.67 in 10.0 mi SSW 18.4 mph 24.2 mph N/A   Clear
3:35 PM 78.8 °F 50.0 °F 36% 29.67 in 10.0 mi South 17.3 mph 26.5 mph N/A   Clear
3:55 PM 78.8 °F 48.2 °F 34% 29.66 in 10.0 mi South 17.3 mph 27.6 mph N/A   Clear
4:15 PM 78.8 °F 48.2 °F 34% 29.66 in 10.0 mi SSW 15.0 mph 26.5 mph N/A   Clear
4:35 PM 78.8 °F 48.2 °F 34% 29.65 in 10.0 mi South 19.6 mph 26.5 mph N/A   Clear
4:55 PM 78.8 °F 48.2 °F 34% 29.64 in 10.0 mi SSW 17.3 mph 24.2 mph N/A   Clear
5:15 PM 78.8 °F 48.2 °F 34% 29.63 in 10.0 mi South 17.3 mph 23.0 mph N/A   Clear
5:35 PM 78.8 °F 48.2 °F 34% 29.63 in 10.0 mi SSW 23.0 mph 27.6 mph N/A   Clear
5:55 PM 78.8 °F 46.4 °F 32% 29.63 in 10.0 mi South 19.6 mph 26.5 mph N/A   Clear
6:15 PM 78.8 °F 48.2 °F 34% 29.63 in 10.0 mi South 17.3 mph 24.2 mph N/A   Clear
6:35 PM 78.8 °F 46.4 °F 32% 29.63 in 10.0 mi SSW 19.6 mph 27.6 mph N/A   Clear
6:55 PM 78.8 °F 48.2 °F 34% 29.62 in 10.0 mi South 16.1 mph 23.0 mph N/A   Clear
7:15 PM 77.0 °F 50.0 °F 39% 29.62 in 10.0 mi South 16.1 mph 21.9 mph N/A   Clear
7:35 PM 73.4 °F 50.0 °F 44% 29.63 in 10.0 mi South 15.0 mph - N/A   Clear
7:55 PM 73.4 °F 50.0 °F 44% 29.64 in 10.0 mi SSW 16.1 mph 21.9 mph N/A   Clear
8:15 PM 71.6 °F 51.8 °F 50% 29.64 in 10.0 mi SSW 13.8 mph - N/A   Clear
8:35 PM 69.8 °F 51.8 °F 53% 29.65 in 10.0 mi SSW 12.7 mph - N/A   Clear
8:55 PM 69.8 °F 51.8 °F 53% 29.66 in 10.0 mi SSW 10.4 mph - N/A   Clear
9:15 PM 68.0 °F 51.8 °F 56% 29.66 in 10.0 mi South 10.4 mph - N/A   Clear
9:35 PM 68.0 °F 51.8 °F 56% 29.67 in 10.0 mi SSW 8.1 mph - N/A   Clear
9:55 PM 68.0 °F 51.8 °F 56% 29.68 in 10.0 mi SSW 10.4 mph - N/A   Clear
10:15 PM 68.0 °F 51.8 °F 56% 29.68 in 10.0 mi SSW 12.7 mph - N/A   Clear
10:35 PM 66.2 °F 51.8 °F 60% 29.70 in 10.0 mi SSW 10.4 mph - N/A   Clear
10:55 PM 66.2 °F 53.6 °F 64% 29.70 in 10.0 mi SSW 8.1 mph - N/A   Clear
11:15 PM 64.4 °F 53.6 °F 68% 29.70 in 10.0 mi SW 9.2 mph - N/A   Clear
11:35 PM 64.4 °F 53.6 °F 68% 29.70 in 10.0 mi SSW 6.9 mph - N/A   Clear
11:55 PM 64.4 °F 53.6 °F 68% 29.70 in 10.0 mi SSW 5.8 mph - N/A   Clear